When you browse on this site, cookies collect data to enhance your experience and personalize the content and advertising you see.
Visit our Privacy Policy to learn more. By continuing to use the site, you agree to this use of cookies and data.
  • In Hungary
  • List of Countries
  • For 7 days
  • Water Temperature
  • Weather Map
  • News
  • Weather Widgets
  • user-avatar
    Login

    Hourly Weather Dubrovka

    Today, 14 October, Monday

    Time Temperature Precipitation Wind Pressure Humidity
    00:00 +7°C° 0.2 mm 5 mps 733 mmHg 87%
    01:00 +7°C° 0.2 mm 5 mps 733 mmHg 87%
    02:00 +7°C° 0.1 mm 5 mps 733 mmHg 86%
    03:00 +6°C° 0.1 mm 5 mps 733 mmHg 84%
    04:00 +6°C° 0.1 mm 5 mps 733 mmHg 83%
    05:00 +6°C° 0 mm 5 mps 733 mmHg 85%
    06:00 +6°C° 0 mm 5 mps 733 mmHg 86%
    07:00 +5°C° 0 mm 5 mps 733 mmHg 87%
    08:00 +5°C° 0 mm 6 mps 734 mmHg 84%
    09:00 +5°C° 0 mm 6 mps 734 mmHg 80%
    10:00 +6°C° 0 mm 7 mps 734 mmHg 77%
    11:00 +6°C° 0.1 mm 7 mps 735 mmHg 77%
    12:00 +6°C° 0.1 mm 7 mps 735 mmHg 76%
    13:00 +6°C° 0.1 mm 7 mps 735 mmHg 76%
    14:00 +6°C° 0.1 mm 7 mps 736 mmHg 74%
    15:00 +8°C° 0.1 mm 7 mps 736 mmHg 71%
    16:00 +8°C° 0.1 mm 7 mps 737 mmHg 69%
    17:00 +7°C° 0.1 mm 6 mps 737 mmHg 73%
    18:00 +7°C° 0.1 mm 6 mps 737 mmHg 77%
    19:00 +6°C° 0.1 mm 5 mps 738 mmHg 81%
    20:00 +6°C° 0.1 mm 5 mps 738 mmHg 83%
    21:00 +6°C° 0.1 mm 5 mps 738 mmHg 85%
    22:00 +5°C° 0.1 mm 6 mps 738 mmHg 87%
    23:00 +6°C° 0.1 mm 5 mps 738 mmHg 87%

    Tomorrow, 15 October, Tuesday

    Time Temperature Precipitation Wind Pressure Humidity
    00:00 +5°C° 0.1 mm 5 mps 738 mmHg 87%
    01:00 +5°C° 0.1 mm 5 mps 738 mmHg 88%
    02:00 +5°C° 0 mm 5 mps 738 mmHg 89%
    03:00 +4°C° 0 mm 4 mps 738 mmHg 90%
    04:00 +4°C° 0 mm 4 mps 739 mmHg 92%
    05:00 +4°C° 0.2 mm 4 mps 738 mmHg 91%
    06:00 +3°C° 0.2 mm 5 mps 738 mmHg 91%
    07:00 +5°C° 0.2 mm 5 mps 737 mmHg 91%
    08:00 +5°C° 0.5 mm 5 mps 736 mmHg 91%
    09:00 +5°C° 0.5 mm 5 mps 735 mmHg 91%
    10:00 +4°C° 0.5 mm 6 mps 734 mmHg 92%
    11:00 +5°C° 1.2 mm 6 mps 733 mmHg 92%
    12:00 +6°C° 1.2 mm 7 mps 732 mmHg 92%
    13:00 +8°C° 1.2 mm 7 mps 731 mmHg 93%
    14:00 +8°C° 0.9 mm 7 mps 731 mmHg 92%
    15:00 +9°C° 0.9 mm 7 mps 731 mmHg 91%
    16:00 +10°C° 0.9 mm 6 mps 731 mmHg 90%
    17:00 +9°C° 0.4 mm 6 mps 731 mmHg 90%
    18:00 +8°C° 0.4 mm 5 mps 732 mmHg 90%
    19:00 +7°C° 0.4 mm 4 mps 732 mmHg 91%
    20:00 +7°C° 0 mm 5 mps 733 mmHg 89%
    21:00 +5°C° 0 mm 6 mps 734 mmHg 87%
    22:00 +4°C° 0 mm 6 mps 734 mmHg 85%
    23:00 +4°C° 0.1 mm 6 mps 735 mmHg 86%

    Day after tomorrow, 16 October, Wednesday

    Time Temperature Precipitation Wind Pressure Humidity
    00:00 +3°C° 0.1 mm 5 mps 736 mmHg 86%
    01:00 +3°C° 0.1 mm 5 mps 737 mmHg 86%
    02:00 +3°C° 0.1 mm 5 mps 737 mmHg 85%
    03:00 +2°C° 0.1 mm 5 mps 738 mmHg 84%
    04:00 +2°C° 0.1 mm 5 mps 739 mmHg 83%
    05:00 +2°C° 0 mm 5 mps 739 mmHg 84%
    06:00 +2°C° 0 mm 5 mps 740 mmHg 85%
    07:00 +1°C° 0 mm 5 mps 740 mmHg 85%
    08:00 +2°C° 0.1 mm 6 mps 740 mmHg 81%
    09:00 +2°C° 0.1 mm 6 mps 741 mmHg 77%
    10:00 +2°C° 0.1 mm 6 mps 742 mmHg 72%
    11:00 +2°C° 0 mm 6 mps 742 mmHg 70%
    12:00 +3°C° 0 mm 6 mps 742 mmHg 67%
    13:00 +3°C° 0 mm 6 mps 743 mmHg 64%
    14:00 +3°C° 0 mm 6 mps 743 mmHg 66%
    15:00 +2°C° 0 mm 6 mps 744 mmHg 68%
    16:00 +2°C° 0 mm 6 mps 744 mmHg 70%
    17:00 +1°C° 0 mm 6 mps 745 mmHg 69%
    18:00 +1°C° 0 mm 5 mps 745 mmHg 69%
    19:00 0°C° 0 mm 5 mps 746 mmHg 69%
    20:00 0°C° 0 mm 5 mps 746 mmHg 71%
    21:00 0°C° 0 mm 4 mps 746 mmHg 72%
    22:00 0°C° 0 mm 4 mps 747 mmHg 74%
    23:00 0°C° 0 mm 3 mps 747 mmHg 75%

    17 October, Thursday

    Time Temperature Precipitation Wind Pressure Humidity
    00:00 0°C° 0 mm 3 mps 747 mmHg 76%
    01:00 +1°C° 0 mm 2 mps 747 mmHg 78%
    02:00 +1°C° 0 mm 2 mps 748 mmHg 79%
    03:00 -1°C° 0 mm 2 mps 748 mmHg 80%
    04:00 -1°C° 0 mm 2 mps 748 mmHg 81%
    05:00 +1°C° 0 mm 1 mps 748 mmHg 81%
    06:00 +1°C° 0 mm 1 mps 749 mmHg 81%
    07:00 0°C° 0 mm 0 mps 749 mmHg 81%
    08:00 +2°C° 0 mm 1 mps 749 mmHg 77%
    09:00 +1°C° 0 mm 2 mps 749 mmHg 74%
    10:00 +2°C° 0 mm 2 mps 749 mmHg 70%
    11:00 +2°C° 0 mm 3 mps 748 mmHg 68%
    12:00 +2°C° 0 mm 3 mps 748 mmHg 67%
    13:00 +3°C° 0 mm 3 mps 748 mmHg 65%
    14:00 +3°C° 0.1 mm 4 mps 747 mmHg 67%
    15:00 +3°C° 0.1 mm 4 mps 747 mmHg 70%
    16:00 +3°C° 0.1 mm 4 mps 747 mmHg 72%
    17:00 +3°C° 0 mm 4 mps 746 mmHg 75%
    18:00 +1°C° 0 mm 4 mps 746 mmHg 77%
    19:00 +1°C° 0 mm 5 mps 745 mmHg 80%
    20:00 +1°C° 0 mm 6 mps 744 mmHg 78%
    21:00 0°C° 0 mm 7 mps 744 mmHg 77%
    22:00 +1°C° 0 mm 8 mps 743 mmHg 75%
    23:00 +1°C° 0 mm 8 mps 742 mmHg 72%

    18 October, Friday

    Time Temperature Precipitation Wind Pressure Humidity
    00:00 +1°C° 0 mm 8 mps 742 mmHg 69%
    01:00 +1°C° 0 mm 9 mps 741 mmHg 66%
    02:00 +2°C° 0 mm 9 mps 740 mmHg 65%
    03:00 +2°C° 0 mm 9 mps 739 mmHg 63%
    04:00 +2°C° 0 mm 9 mps 739 mmHg 62%
    05:00 +2°C° 0.2 mm 9 mps 738 mmHg 64%
    06:00 +2°C° 0.2 mm 9 mps 737 mmHg 66%
    07:00 +1°C° 0.2 mm 9 mps 736 mmHg 68%
    08:00 +1°C° 0.5 mm 9 mps 736 mmHg 72%
    09:00 +2°C° 0.5 mm 9 mps 735 mmHg 75%
    10:00 +2°C° 0.5 mm 9 mps 735 mmHg 79%
    11:00 +2°C° 0.1 mm 8 mps 735 mmHg 81%
    12:00 +2°C° 0.1 mm 8 mps 735 mmHg 84%
    13:00 +4°C° 0.1 mm 7 mps 735 mmHg 86%
    14:00 +2°C° 0.5 mm 8 mps 735 mmHg 81%
    15:00 +1°C° 0.5 mm 8 mps 735 mmHg 75%
    16:00 0°C° 0.5 mm 8 mps 736 mmHg 70%
    17:00 -1°C° 0 mm 8 mps 736 mmHg 71%
    18:00 -1°C° 0 mm 8 mps 737 mmHg 73%
    19:00 -2°C° 0 mm 7 mps 738 mmHg 74%
    20:00 -2°C° 0 mm 8 mps 738 mmHg 76%
    21:00 -4°C° 0 mm 8 mps 739 mmHg 78%
    22:00 -4°C° 0 mm 8 mps 739 mmHg 81%
    23:00 -4°C° 0.1 mm 8 mps 739 mmHg 81%

    19 October, Saturday

    Time Temperature Precipitation Wind Pressure Humidity
    00:00 -5°C° 0.1 mm 8 mps 740 mmHg 81%
    01:00 -5°C° 0.1 mm 8 mps 740 mmHg 81%
    02:00 -5°C° 0 mm 8 mps 741 mmHg 80%
    03:00 -6°C° 0 mm 8 mps 741 mmHg 79%
    04:00 -6°C° 0 mm 8 mps 742 mmHg 78%
    05:00 -6°C° 0 mm 8 mps 743 mmHg 77%
    06:00 -6°C° 0 mm 8 mps 743 mmHg 75%
    07:00 -6°C° 0 mm 8 mps 744 mmHg 74%
    08:00 -6°C° 0 mm 7 mps 745 mmHg 72%
    09:00 -6°C° 0 mm 7 mps 745 mmHg 71%
    10:00 -4°C° 0 mm 6 mps 746 mmHg 69%
    11:00 -4°C° 0 mm 6 mps 746 mmHg 65%
    12:00 -2°C° 0 mm 5 mps 747 mmHg 62%
    13:00 -1°C° 0 mm 5 mps 747 mmHg 58%
    14:00 -1°C° 0 mm 4 mps 748 mmHg 58%
    15:00 -1°C° 0 mm 4 mps 748 mmHg 58%
    16:00 0°C° 0 mm 3 mps 748 mmHg 58%
    17:00 -1°C° 0 mm 3 mps 748 mmHg 62%
    18:00 -2°C° 0 mm 2 mps 749 mmHg 66%
    19:00 -1°C° 0 mm 1 mps 749 mmHg 70%
    20:00 -1°C° 0 mm 1 mps 749 mmHg 71%
    21:00 -1°C° 0 mm 1 mps 749 mmHg 72%
    22:00 -1°C° 0 mm 1 mps 750 mmHg 73%
    23:00 -1°C° 0 mm 1 mps 750 mmHg 73%
    Show more